Flag for U.S.A. Weather past 2 weeks in Trenton, New Jersey, U.S.A.

Now
30 °F

Sunny.


Feels Like: 19 °F
Forecast: 26 / 45 °F
Wind: 15 mph from Northwest

Location: Mercer County Airport

Current Time: Mar 28, 2015 at 8:51:14 PM

Latest Report: Mar 28, 2015 at 7:53 PM


Visibility: 10 mi

Pressure: 30.03 "Hg

Humidity: 43%

Dew point: 10 °F

Location of TrentonLocation

Historic Weather in Trenton — Graph

°F

Trenton temperature yesterday

Maximum temperature yesterday: 46 °F (at 1:00 AM)
Minimum temperature yesterday: 37 °F (at 6:53 AM)
Average temperature yesterday: 42 °F

Past Weeks' High & Low Weather Summary

 TemperatureHumidityPressure
High64 °F (Mar 26, 4:53 PM)97% (Mar 14, 10:53 AM)30.42 "Hg (Mar 14, 10:53 AM)
Low22 °F (Mar 19, 6:53 AM)18% (Mar 18, 4:53 PM)29.56 "Hg (Mar 26, 6:53 PM)
Average38 °F58%30.02 "Hg
* Reported Mar 13 7:53 PM — Mar 28 7:53 PM, Trenton, Weather by CustomWeather, © 2015

Note: Actual official high and low records may vary slightly from our data, if they occured in-between our weather recording intervals... More about our weather records

Advertising

Trenton weather history for previous 24 hours

 ConditionsComfort  
Time TempWeatherWind HumidityBarometerVisibility
7:53 PM
Sat, Mar 28
30 °FSunny.15 mph43%30.03 "Hg10 mi
6:53 PM33 °FOvercast.18 mph40%29.98 "Hg10 mi
5:53 PM37 °FMostly cloudy.18 mph34%29.92 "Hg10 mi
4:53 PM38 °FOvercast.15 mph36%29.88 "Hg10 mi
3:53 PM38 °FOvercast.16 mph37%29.86 "Hg10 mi
2:53 PM39 °FOvercast.13 mph36%29.84 "Hg10 mi
1:53 PM39 °FOvercast.15 mph38%29.84 "Hg10 mi
12:53 PM39 °FOvercast.14 mph41%29.83 "Hg10 mi
11:53 AM40 °FScattered clouds.12 mph41%29.83 "Hg10 mi
10:53 AM37 °FSunny.17 mph44%29.83 "Hg10 mi
9:53 AM36 °FSunny.15 mph48%29.83 "Hg10 mi
8:53 AM35 °FSunny.13 mph50%29.80 "Hg10 mi
7:53 AM33 °FSunny.9 mph54%29.80 "Hg10 mi
6:53 AM33 °FPassing clouds.6 mph56%29.79 "Hg10 mi
5:53 AM33 °FPassing clouds.12 mph54%29.77 "Hg10 mi
4:53 AM34 °FPassing clouds.9 mph56%29.75 "Hg10 mi
3:53 AM34 °FClear.8 mph64%29.76 "Hg10 mi
2:53 AM36 °FClear.8 mph62%29.75 "Hg10 mi
1:53 AM37 °FPassing clouds.10 mph60%29.77 "Hg10 mi
12:53 AM38 °FClear.8 mph55%29.78 "Hg10 mi
11:53 PM
Fri, Mar 27
39 °FPartly cloudy.5 mph55%29.77 "Hg10 mi
10:53 PM40 °FOvercast.7 mph53%29.77 "Hg10 mi
9:53 PM41 °FOvercast.7 mph53%29.77 "Hg10 mi
8:53 PM42 °FPassing clouds.3 mph55%29.77 "Hg10 mi
Weather by CustomWeather, © 2015

See weather overviewHow to use our weather pages